Valparaiso, IN

1:16 PM CDT on April 28, 2017 (GMT -0500)
Porter County Municipal

Weather History for KVPZ - January, 2013

Change the Weather History Date:

Wednesday, January 9, 2013

  Actual Average Record
Temperature  
Mean Temperature 39 °F 24 °F  
Max Temperature 49 °F 31 °F 53 °F (2002)
Min Temperature 28 °F 16 °F -9 °F (1999)
Degree Days  
Heating Degree Days 26 41  
Month to date heating degree days 352 369  
Since 1 July heating degree days 2537 2771  
Cooling Degree Days 0 0  
Month to date cooling degree days 0 0  
Year to date cooling degree days 0 0  
Moisture  
Dew Point 26 °F    
Average Humidity 61    
Maximum Humidity 82    
Minimum Humidity 33    
Precipitation  
Precipitation T in 0.05 in 0.45 in (2005)
Month to date precipitation T 0.49  
Year to date precipitation T 0.49  
Sea Level Pressure  
Sea Level Pressure 30.30 in    
Wind  
Wind Speed 12 mph (WSW)    
Max Wind Speed 25 mph    
Max Gust Speed 35 mph    
Visibility 10 miles    
Events      
T = Trace of Precipitation, MM = Missing Value Source: NWS Daily Summary

Daily Weather History Graph

Daily Weather History Graph

Search for Another Location

Airport or City:

Trip Planner

Search our weather history database for the weather conditions in past years. The results will help you decide how hot, cold, wet, or windy it might be!

Date:

Astronomy

Jan. 09, 2013 Rise Set
Actual Time 7:13 AM CST 4:37 PM CST
Civil Twilight 6:43 AM CST 5:07 PM CST
Nautical Twilight 6:08 AM CST 5:42 PM CST
Astronomical Twilight 5:35 AM CST 6:15 PM CST
Moon 4:52 AM CST (1/9) 2:38 PM CST (1/9)
Length of Visible Light 10h 24m
Length of Day
9h 23m
Waning Crescent, 6% of the Moon is Illuminated
Jan 9
Waning Crescent
Jan 11
New
Jan 18
First Quarter
Jan 26
Full
Feb 3
Last Quarter

Hourly Weather History & Observations

Time (CST) Temp. Windchill Dew Point Humidity Pressure Visibility Wind Dir Wind Speed Gust Speed Precip Events Conditions
12:53 AM 34.0 °F 27.2 °F 28.9 °F 82% 30.08 in 8.0 mi South 8.1 mph - N/A   Partly Cloudy
1:53 AM 37.9 °F 30.0 °F 30.9 °F 76% 30.09 in 10.0 mi SSW 12.7 mph - N/A   Overcast
2:53 AM 39.0 °F 31.8 °F 33.1 °F 79% 30.10 in 10.0 mi SW 11.5 mph - N/A   Overcast
3:53 AM 41.0 °F 32.8 °F 33.1 °F 73% 30.10 in 10.0 mi WSW 16.1 mph - 0.00 in   Mostly Cloudy
4:53 AM 39.0 °F 31.0 °F 32.0 °F 76% 30.12 in 10.0 mi SW 13.8 mph - N/A   Clear
5:53 AM 37.9 °F 30.0 °F 30.9 °F 76% 30.15 in 10.0 mi WSW 12.7 mph - N/A   Clear
6:53 AM 37.0 °F 28.1 °F 30.0 °F 76% 30.20 in 10.0 mi WSW 15.0 mph - N/A   Clear
7:53 AM 36.0 °F 27.1 °F 30.0 °F 79% 30.24 in 10.0 mi WSW 13.8 mph - N/A   Clear
8:53 AM 37.0 °F 29.3 °F 30.0 °F 76% 30.26 in 10.0 mi SW 11.5 mph - N/A   Clear
9:53 AM 39.0 °F 31.4 °F 30.9 °F 73% 30.29 in 10.0 mi WSW 12.7 mph - N/A   Clear
10:53 AM 43.0 °F 36.0 °F 30.9 °F 62% 30.29 in 10.0 mi WSW 13.8 mph - N/A   Clear
11:53 AM 46.0 °F 39.0 °F 30.9 °F 56% 30.28 in 10.0 mi West 17.3 mph 25.3 mph N/A   Clear
12:53 PM 46.9 °F - 30.0 °F 52% 30.29 in 10.0 mi West 17.3 mph - N/A   Clear
1:53 PM 48.0 °F - 27.0 °F 44% 30.30 in 10.0 mi West 15.0 mph 24.2 mph N/A   Clear
2:53 PM 48.9 °F - 21.0 °F 33% 30.34 in 10.0 mi West 21.9 mph 31.1 mph N/A   Clear
3:53 PM 46.9 °F - 19.9 °F 34% 30.39 in 10.0 mi WNW 12.7 mph 23.0 mph N/A   Clear
4:53 PM 41.0 °F 34.7 °F 21.0 °F 45% 30.42 in 10.0 mi West 10.4 mph - N/A   Clear
5:53 PM 42.1 °F 37.7 °F 17.1 °F 37% 30.43 in 10.0 mi NW 6.9 mph - N/A   Clear
6:53 PM 41.0 °F 35.2 °F 17.1 °F 38% 30.43 in 10.0 mi NW 9.2 mph - N/A   Clear
7:53 PM 39.0 °F 33.4 °F 19.9 °F 46% 30.44 in 10.0 mi NW 8.1 mph - N/A   Clear
8:53 PM 36.0 °F 31.1 °F 23.0 °F 59% 30.47 in 10.0 mi West 5.8 mph - N/A   Clear
9:53 PM 33.1 °F 30.0 °F 21.0 °F 61% 30.48 in 10.0 mi WSW 3.5 mph - N/A   Clear
10:53 PM 30.0 °F 26.5 °F 21.9 °F 72% 30.50 in 10.0 mi West 3.5 mph - N/A   Clear
11:53 PM 30.0 °F 23.2 °F 19.9 °F 66% 30.53 in 10.0 mi South 6.9 mph - N/A   Clear